Regional Weather Roundup
Issued by NWS Midland/Odessa, TX

Skip options and go directly to product.
Home | Oldest Version | Previous Version | Current Version | All | Graphics & Text | Save Text | Print | Product List | Glossary On

Skip product version selection by date and time.   
730
ASUS44 KMAF 291810
RWRMAF
MIDLAND AREA WEATHER ROUNDUP
NATIONAL WEATHER SERVICE MIDLAND TX
100 PM CDT FRI AUG 29 2014

...IN SOUTHWEST TEXAS AND SOUTHEAST NEW MEXICO...

CITY           SKY/WX    TMP DP  RH WIND       PRES   REMARKS
ALPINE         SUNNY     86  49  27 NE10G16   30.13F
ANDREWS        CLOUDY    82  65  56 NE6       30.03S
ARTESIA        NOT AVBL
BIG SPRING     CLOUDY    83  67  59 CALM      30.02S
CARLSBAD       SUNNY     84  58  40 N17G24    30.03F
DRYDEN           N/A     92  67  43 E9        29.93F
FORT STOCKTON  SUNNY     86  58  38 NW12      29.99S
GUAD PASS      MOSUNNY   84  45  25 SW9       30.16F
HOBBS          MOSUNNY   81  63  54 NE9       30.06F
MARFA          SUNNY     86  45  23 NE10G17   30.12F
MIDLAND AIRPK  NOT AVBL
MIDLAND INTL   PTSUNNY   85  66  53 CALM      29.99S
ODESSA         MOSUNNY   85  65  51 S5        30.00F
PECOS          SUNNY     86  55  33 NW12      29.97F
PRESIDIO       FAIR      91  57  32 CALM      29.95F
SEMINOLE       PTSUNNY   80  63  56 E8        30.04F
SNYDER         CLOUDY    79  68  70 CALM      30.01F
WINK           SUNNY     89  62  40 VRB5      29.96S
$$
...OTHER STATIONS IN TEXAS...

CITY           SKY/WX    TMP DP  RH WIND       PRES   REMARKS
ABILENE        PTSUNNY   83  69  62 W5        29.97S
AMARILLO       SUNNY     85  47  26 N12       30.03F
AUSTIN         PTSUNNY   92  70  48 E8        29.88F
BROWNSVILLE    CLOUDY    81  79  94 SE10      29.81F
CORPUS CHRISTI CLOUDY    82  76  81 SE6       29.83F
DALLAS FTW     PTSUNNY   84  68  58 CALM      29.92F
DEL RIO        PTSUNNY   89  69  51 SE8       29.88F
EL PASO        MOSUNNY   87  46  24 NW3       30.05F
HOUSTON INT    PTSUNNY   90  73  58 E15       29.89F
LUBBOCK        MOSUNNY   80  64  58 VRB6      30.03F
SAN ANGELO     SUNNY     90  66  45 VRB5      29.94F
SAN ANTONIO    PTSUNNY   92  69  47 E7        29.89F
WACO           SUNNY     87  71  58 S7        29.91F
WICHITA FALLS  NOT AVBL
$$
...OTHER LOCATIONS IN NEW MEXICO...

CITY           SKY/WX    TMP DP  RH WIND       PRES   REMARKS
ALAMAGORDO     SUNNY     84  48  28 SW5       30.08F
ALBUQUERQUE    MOSUNNY   78  44  29 E6        30.18F
CANNON AFB     SUNNY     82  44  26 VRB5      30.09F
CLOVIS           N/A     82  45  26 CALM      30.11F
HOLLOMAN AFB   SUNNY     87  48  25 N3        30.05F
ROSWELL        SUNNY     82  55  39 NE9       30.06F
RUIDOSO        SUNNY     72  46  40 S8        30.28S
SANTA FE       SUNNY     73  41  31 VRB3      30.23F
TRUTH OR CONSE SUNNY     83  45  26 NE7       30.12F
TUCUMCARI      SUNNY     83  40  21 CALM      30.07F
$$

USA.gov is the U.S. government's official web portal to all federal, state and local government web resources and services.